Simultaneous Nadir Overpasses (SNOs) Predictions

Prediction of SNOs between NOAA-15 and METOP-C Satellite Orbit:

Table of predicted SNOs for the next 14.0 days since TLE Epoch: 12/14/2018
Index Date (NOAA-15) Time (NOAA-15) Lat,Lon (NOAA-15) SZA (NOAA-15 ) Date (METOP-C) Time (METOP-C) Lat,Lon (METOP-C) SZA (METOP-C ) Distance(km) Time Diff (sec)
1 12/17/2018 16:59:58 80.73, -42.98 105.46 12/17/2018 16:58:49 80.73, -42.99 105.44 0.13 69
2 12/17/2018 17:50:31 -80.74, 124.16 74.55 12/17/2018 17:49:29 -80.72, 124.24 74.58 2.45 62
3 12/17/2018 18:41:00 80.73, -68.30 105.46 12/17/2018 18:40:10 80.72, -68.46 105.42 3.21 50
4 12/17/2018 19:31:33 -80.72, 99.20 74.54 12/17/2018 19:30:50 -80.74, 99.11 74.55 2.01 43
5 12/17/2018 20:22:03 80.74, -93.61 105.46 12/17/2018 20:21:31 80.73, -93.59 105.45 0.48 32
6 12/17/2018 21:12:37 -80.75, 73.54 74.55 12/17/2018 21:12:12 -80.73, 73.64 74.57 2.79 25
7 12/17/2018 22:03:06 80.74,-118.93 105.46 12/17/2018 22:02:53 80.73,-119.07 105.43 2.80 13
8 12/17/2018 22:53:39 -80.73, 48.58 74.54 12/17/2018 22:53:33 -80.74, 48.51 74.54 1.60 6
9 12/17/2018 23:44:09 80.74,-144.25 105.46 12/17/2018 23:44:14 80.74,-144.19 105.46 1.08 5
10 12/18/2018 00:34:42 -80.73, 23.26 74.54 12/18/2018 00:34:54 -80.75, 23.38 74.51 3.03 12
11 12/18/2018 01:25:12 80.75,-169.57 105.46 12/18/2018 01:25:36 80.73,-169.67 105.45 2.47 24
12 12/18/2018 02:15:45 -80.74, -2.05 74.54 12/18/2018 02:16:16 -80.74, -2.09 74.52 1.22 31
13 12/18/2018 03:06:15 80.75, 165.12 105.46 12/18/2018 03:06:57 80.74, 165.20 105.48 1.69 42
14 12/18/2018 03:56:48 -80.74, -27.36 74.54 12/18/2018 03:57:37 -80.76, -27.22 74.49 3.26 49
15 12/18/2018 04:47:18 80.75, 139.80 105.46 12/18/2018 04:48:19 80.73, 139.73 105.46 2.25 61
16 12/18/2018 05:37:51 -80.74, -52.67 74.54 12/18/2018 05:38:59 -80.75, -52.69 74.51 0.88 68




NCC Satellite Simultaneous Nadir Overpasses (SNOs) Prediction Service
